Naples, FL

1:25 AM EDT on May 23, 2018 (GMT -0400)
Naples Municipal

Weather History for KAPF - October, 2014

Change the Weather History Date:

Saturday, October 25, 2014

  Actual Average Record
Temperature  
Mean Temperature 75 °F 77 °F  
Max Temperature 83 °F 86 °F 91 °F (2001)
Min Temperature 66 °F 68 °F 51 °F (1982)
Degree Days  
Heating Degree Days 0 0  
Month to date heating degree days 0 0  
Since 1 July heating degree days 0 0  
Cooling Degree Days 10 12  
Month to date cooling degree days 357 351  
Year to date cooling degree days 3746 3528  
Growing Degree Days 24 (Base 50)    
Moisture  
Dew Point 60 °F    
Average Humidity 59    
Maximum Humidity 78    
Minimum Humidity 40    
Precipitation  
Precipitation 0.00 in 0.10 in 2.03 in (1968)
Month to date precipitation 1.43 3.70  
Year to date precipitation 49.36 47.91  
Snow  
Snow 0.00 in - - ()
Month to date snowfall 0.0  
Since 1 July snowfall 0.0  
Since 1 September snowfall 0.0  
Snow Depth 0.00 in    
Sea Level Pressure  
Sea Level Pressure 29.93 in    
Wind  
Wind Speed 8 mph (North)    
Max Wind Speed 16 mph    
Max Gust Speed 22 mph    
Visibility 10 miles    
Events      
T = Trace of Precipitation, MM = Missing Value Source: NWS Daily Summary

Daily Weather History Graph

Daily Weather History Graph

Search for Another Location

Airport or City:

Astronomy

Oct. 25, 2014 Rise Set
Actual Time 7:31 AM EDT 6:50 PM EDT
Civil Twilight 7:08 AM EDT 7:13 PM EDT
Nautical Twilight 6:41 AM EDT 7:40 PM EDT
Astronomical Twilight 6:14 AM EDT 8:07 PM EDT
Moon 9:02 AM EDT (10/25) 8:20 PM EDT (10/25)
Length of Visible Light 12h 05m
Length of Day
11h 18m
Waxing Crescent, 3% of the Moon is Illuminated
Oct 25
Waxing Crescent
Oct 30
First Quarter
Nov 6
Full
Nov 14
Last Quarter
Nov 22
New

Hourly Weather History & Observations

Time (EDT) Temp. Heat Index Dew Point Humidity Pressure Visibility Wind Dir Wind Speed Gust Speed Precip Events Conditions
12:53 AM 70.0 °F - 59.0 °F 68% 29.92 in 10.0 mi NNE 8.1 mph - N/A   Clear
1:53 AM 69.1 °F - 57.9 °F 68% 29.91 in 10.0 mi NNE 6.9 mph - N/A   Clear
2:53 AM 69.1 °F - 57.9 °F 68% 29.91 in 10.0 mi North 5.8 mph - N/A   Clear
3:53 AM 68.0 °F - 57.9 °F 70% 29.90 in 10.0 mi NNE 6.9 mph - N/A   Partly Cloudy
4:53 AM 66.9 °F - 57.9 °F 73% 29.90 in 10.0 mi North 5.8 mph - N/A   Clear
5:53 AM 66.0 °F - 57.9 °F 75% 29.91 in 10.0 mi North 6.9 mph - N/A   Clear
6:53 AM 66.0 °F - 57.9 °F 75% 29.93 in 10.0 mi North 10.4 mph - N/A   Clear
7:53 AM 66.0 °F - 57.9 °F 75% 29.95 in 10.0 mi North 10.4 mph - N/A   Clear
8:53 AM 69.1 °F - 57.9 °F 68% 29.96 in 10.0 mi North 11.5 mph - N/A   Clear
9:53 AM 72.0 °F - 57.9 °F 61% 29.96 in 10.0 mi NNE 11.5 mph 19.6 mph N/A   Clear
10:53 AM 75.9 °F - 59.0 °F 56% 29.96 in 10.0 mi NNE 9.2 mph - N/A   Clear
11:53 AM 79.0 °F - 61.0 °F 54% 29.96 in 10.0 mi NNE 9.2 mph - N/A   Clear
12:53 PM 80.1 °F 80.7 °F 59.0 °F 48% 29.95 in 10.0 mi NNE 6.9 mph - N/A   Clear
1:53 PM 82.0 °F 82.1 °F 59.0 °F 45% 29.93 in 10.0 mi NNW 6.9 mph - N/A   Partly Cloudy
2:53 PM 82.0 °F 81.6 °F 55.9 °F 41% 29.91 in 10.0 mi NNW 8.1 mph - N/A   Clear
3:53 PM 82.0 °F 82.1 °F 59.0 °F 45% 29.90 in 10.0 mi NNW 12.7 mph - N/A   Clear
4:53 PM 80.1 °F 80.9 °F 60.1 °F 50% 29.90 in 10.0 mi NW 9.2 mph 18.4 mph N/A   Clear
5:53 PM 78.1 °F - 63.0 °F 60% 29.90 in 10.0 mi NW 12.7 mph 18.4 mph N/A   Clear
6:53 PM 75.9 °F - 62.1 °F 62% 29.92 in 10.0 mi NW 10.4 mph - N/A   Clear
7:53 PM 75.0 °F - 63.0 °F 66% 29.93 in 10.0 mi NW 6.9 mph - N/A   Clear
8:53 PM 73.9 °F - 63.0 °F 68% 29.95 in 10.0 mi North 4.6 mph - N/A   Clear
9:53 PM 71.1 °F - 63.0 °F 75% 29.96 in 10.0 mi Calm Calm - N/A   Clear
10:53 PM 70.0 °F - 62.1 °F 76% 29.96 in 10.0 mi Calm Calm - N/A   Clear
11:53 PM 69.1 °F - 62.1 °F 78% 29.96 in 10.0 mi North 6.9 mph - N/A   Clear